| time (UTC) | temp C | wind direction | speed KPH | gust KPH | rain 1hr cm | rain 24hr cm | rain mn cm | humidity % | barometer mb |
| 20260505125038 | 12 | 172 | 3.2 | 17.7 | 0.00 | 0.00 | 0.00 | 63 | 1008.9 |
| 20260505124537 | 12 | 139 | 4.8 | 17.7 | 0.00 | 0.00 | 0.00 | 63 | 1008.8 |
| 20260505124034 | 12 | 144 | 8.0 | 22.5 | 0.00 | 0.00 | 0.00 | 63 | 1008.7 |
| 20260505123535 | 12 | 148 | 11.3 | 22.5 | 0.00 | 0.00 | 0.00 | 64 | 1008.6 |
| 20260505123033 | 12 | 165 | 6.4 | 16.1 | 0.00 | 0.00 | 0.00 | 65 | 1008.5 |
| 20260505122537 | 12 | 133 | 4.8 | 22.5 | 0.00 | 0.00 | 0.00 | 67 | 1008.4 |
| 20260505122037 | 12 | 159 | 9.7 | 22.5 | 0.00 | 0.00 | 0.00 | 66 | 1008.4 |
| 20260505121536 | 11 | 203 | 4.8 | 16.1 | 0.00 | 0.00 | 0.00 | 67 | 1008.4 |
| 20260505121031 | 12 | 141 | 4.8 | 16.1 | 0.00 | 0.00 | 0.00 | 68 | 1008.4 |
| 20260505120531 | 12 | 150 | 4.8 | 17.7 | 0.00 | 0.00 | 0.00 | 69 | 1008.5 |
| 20260505120030 | 12 | 164 | 4.8 | 19.3 | 0.00 | 0.00 | 0.00 | 70 | 1008.5 |
| 20260505115530 | 12 | 141 | 9.7 | 19.3 | 0.00 | 0.00 | 0.00 | 71 | 1008.6 |
| 20260505115030 | 12 | 156 | 6.4 | 16.1 | 0.00 | 0.00 | 0.00 | 72 | 1008.5 |
| 20260505114534 | 11 | 118 | 8.0 | 14.5 | 0.00 | 0.00 | 0.00 | 73 | 1008.5 |
| 20260505114027 | 11 | 226 | 4.8 | 12.9 | 0.00 | 0.00 | 0.00 | 72 | 1008.6 |
| 20260505113525 | 11 | 214 | 3.2 | 12.9 | 0.00 | 0.00 | 0.00 | 71 | 1008.6 |
| 20260505113025 | 11 | 212 | 3.2 | 12.9 | 0.00 | 0.00 | 0.00 | 70 | 1008.7 |
| 20260505112525 | 11 | 215 | 6.4 | 12.9 | 0.00 | 0.00 | 0.00 | 68 | 1008.6 |
| 20260505112025 | 11 | 213 | 4.8 | 11.3 | 0.00 | 0.00 | 0.00 | 68 | 1008.7 |
| 20260505111528 | 11 | 225 | 1.6 | 8.0 | 0.00 | 0.00 | 0.00 | 68 | 1008.7 |
| 20260505111023 | 11 | 214 | 1.6 | 11.3 | 0.00 | 0.00 | 0.00 | 68 | 1008.7 |
| 20260505110522 | 11 | 220 | 3.2 | 11.3 | 0.00 | 0.00 | 0.00 | 67 | 1008.7 |
| 20260505102015 | 12 | 231 | 1.6 | 6.4 | 0.00 | 0.00 | 0.00 | 59 | 1008.5 |
| 20260505101515 | 12 | 236 | 1.6 | 4.8 | 0.00 | 0.00 | 0.00 | 59 | 1008.5 |
| 20260505101014 | 12 | 236 | 3.2 | 6.4 | 0.00 | 0.00 | 0.00 | 59 | 1008.5 |
| 20260505100514 | 12 | 274 | 0.0 | 6.4 | 0.00 | 0.00 | 0.00 | 59 | 1008.4 |
| 20260505100013 | 12 | 220 | 1.6 | 6.4 | 0.00 | 0.00 | 0.00 | 59 | 1008.6 |
| 20260505095512 | 12 | 208 | 1.6 | 6.4 | 0.00 | 0.00 | 0.00 | 59 | 1008.6 |
| 20260505095012 | 12 | 221 | 1.6 | 6.4 | 0.00 | 0.00 | 0.00 | 59 | 1008.6 |
| 20260505094512 | 12 | 240 | 1.6 | 8.0 | 0.00 | 0.00 | 0.00 | 59 | 1008.6 |
| 20260505094017 | 12 | 219 | 1.6 | 9.7 | 0.00 | 0.00 | 0.00 | 59 | 1008.6 |
| 20260505093513 | 12 | 231 | 1.6 | 9.7 | 0.00 | 0.00 | 0.00 | 60 | 1008.6 |
| 20260505093012 | 12 | 186 | 1.6 | 6.4 | 0.00 | 0.00 | 0.00 | 60 | 1008.5 |
| 20260505092512 | 12 | 214 | 0.0 | 11.3 | 0.00 | 0.00 | 0.00 | 62 | 1008.5 |
| 20260505092012 | 12 | 235 | 1.6 | 11.3 | 0.00 | 0.00 | 0.00 | 61 | 1008.5 |
| 20260505091511 | 12 | 202 | 3.2 | 11.3 | 0.00 | 0.00 | 0.00 | 61 | 1008.5 |
| 20260505091011 | 12 | 163 | 4.8 | 11.3 | 0.00 | 0.00 | 0.00 | 61 | 1008.5 |
| 20260505090509 | 12 | 172 | 1.6 | 11.3 | 0.00 | 0.00 | 0.00 | 60 | 1008.5 |
| 20260505090009 | 13 | 132 | 3.2 | 11.3 | 0.00 | 0.00 | 0.00 | 60 | 1008.6 |
| 20260505085512 | 12 | 192 | 4.8 | 11.3 | 0.00 | 0.00 | 0.00 | 60 | 1008.6 |
| 20260505085008 | 12 | 173 | 4.8 | 14.5 | 0.00 | 0.00 | 0.00 | 61 | 1008.7 |
| 20260505084508 | 12 | 153 | 1.6 | 8.0 | 0.00 | 0.00 | 0.00 | 61 | 1008.7 |
| 20260505084008 | 12 | 156 | 4.8 | 11.3 | 0.00 | 0.00 | 0.00 | 62 | 1008.7 |
| 20260505083511 | 12 | 154 | 4.8 | 11.3 | 0.00 | 0.00 | 0.00 | 62 | 1008.8 |
| 20260505083007 | 12 | 190 | 1.6 | 9.7 | 0.00 | 0.00 | 0.00 | 62 | 1008.8 |
| 20260505082507 | 12 | 139 | 3.2 | 9.7 | 0.00 | 0.00 | 0.00 | 62 | 1008.9 |
| 20260505082007 | 12 | 229 | 1.6 | 8.0 | 0.00 | 0.00 | 0.00 | 62 | 1008.9 |
| 20260505081507 | 12 | 150 | 1.6 | 9.7 | 0.00 | 0.00 | 0.00 | 62 | 1009.0 |
| 20260505081008 | 12 | 140 | 3.2 | 14.5 | 0.00 | 0.00 | 0.00 | 62 | 1009.1 |
| 20260505080506 | 12 | 158 | 3.2 | 17.7 | 0.00 | 0.00 | 0.00 | 61 | 1009.0 |
| 20260505080005 | 12 | 159 | 6.4 | 17.7 | 0.00 | 0.00 | 0.00 | 61 | 1009.0 |
| 20260505075505 | 12 | 193 | 3.2 | 14.5 | 0.00 | 0.00 | 0.00 | 60 | 1009.1 |
| 20260505075005 | 13 | 160 | 6.4 | 24.1 | 0.00 | 0.00 | 0.00 | 60 | 1009.0 |
| 20260505074504 | 13 | 183 | 12.9 | 24.1 | 0.00 | 0.00 | 0.00 | 59 | 1009.0 |
| 20260505074003 | 13 | 218 | 12.9 | 27.4 | 0.00 | 0.00 | 0.00 | 58 | 1009.0 |
| 20260505073503 | 13 | 166 | 11.3 | 27.4 | 0.00 | 0.00 | 0.00 | 57 | 1008.9 |
| 20260505073004 | 13 | 143 | 14.5 | 29.0 | 0.00 | 0.00 | 0.00 | 57 | 1008.9 |
| 20260505072502 | 13 | 136 | 12.9 | 29.0 | 0.00 | 0.00 | 0.00 | 56 | 1008.9 |
| 20260505072001 | 13 | 165 | 11.3 | 22.5 | 0.00 | 0.00 | 0.00 | 56 | 1008.8 |
| 20260505071501 | 13 | 150 | 8.0 | 22.5 | 0.00 | 0.00 | 0.00 | 55 | 1008.7 |
| 20260505071100 | 13 | 140 | 11.3 | 25.7 | 0.00 | 0.00 | 0.00 | 55 | 1008.7 |
| 20260505070559 | 13 | 146 | 12.9 | 32.2 | 0.00 | 0.00 | 0.00 | 54 | 1008.7 |
| 20260505070058 | 13 | 141 | 12.9 | 29.0 | 0.00 | 0.00 | 0.00 | 55 | 1008.7 |
| 20260505065557 | 12 | 170 | 11.3 | 27.4 | 0.00 | 0.00 | 0.00 | 55 | 1008.7 |
| 20260505065057 | 12 | 198 | 11.3 | 24.1 | 0.00 | 0.00 | 0.00 | 56 | 1008.7 |
| 20260505064556 | 12 | 150 | 12.9 | 25.7 | 0.00 | 0.00 | 0.00 | 56 | 1008.8 |
| 20260505064056 | 12 | 129 | 12.9 | 27.4 | 0.00 | 0.00 | 0.00 | 56 | 1008.8 |
| 20260505063554 | 12 | 144 | 11.3 | 27.4 | 0.00 | 0.00 | 0.00 | 57 | 1008.7 |
| 20260505063058 | 12 | 160 | 11.3 | 27.4 | 0.00 | 0.00 | 0.00 | 57 | 1008.7 |
| 20260505062554 | 12 | 149 | 8.0 | 25.7 | 0.00 | 0.00 | 0.00 | 58 | 1008.7 |
| 20260505062052 | 12 | 147 | 9.7 | 27.4 | 0.00 | 0.00 | 0.00 | 59 | 1008.7 |
| 20260505061618 | 12 | 159 | 14.5 | 29.0 | 0.00 | 0.00 | 0.00 | 59 | 1008.7 |
| 20260505061051 | 12 | 198 | 9.7 | 29.0 | 0.00 | 0.00 | 0.00 | 59 | 1008.7 |
| 20260505060556 | 12 | 150 | 12.9 | 29.0 | 0.00 | 0.00 | 0.00 | 59 | 1008.7 |
| 20260505060052 | 13 | 155 | 9.7 | 27.4 | 0.00 | 0.00 | 0.00 | 59 | 1008.7 |
| 20260505055548 | 13 | 231 | 8.0 | 25.7 | 0.00 | 0.00 | 0.00 | 59 | 1008.8 |
| 20260505055051 | 13 | 137 | 12.9 | 32.2 | 0.00 | 0.00 | 0.00 | 58 | 1008.8 |
| 20260505054559 | 13 | 162 | 12.9 | 32.2 | 0.00 | 0.00 | 0.00 | 57 | 1008.8 |
| 20260505054047 | 13 | 160 | 12.9 | 25.7 | 0.00 | 0.00 | 0.00 | 57 | 1008.8 |
| 20260505053547 | 13 | 176 | 12.9 | 29.0 | 0.00 | 0.00 | 0.00 | 58 | 1008.8 |
| 20260505053046 | 13 | 169 | 17.7 | 33.8 | 0.00 | 0.00 | 0.00 | 57 | 1008.7 |
| 20260505052545 | 13 | 133 | 14.5 | 33.8 | 0.00 | 0.00 | 0.00 | 57 | 1008.6 |
| 20260505052045 | 13 | 147 | 12.9 | 30.6 | 0.00 | 0.00 | 0.00 | 58 | 1008.6 |
| 20260505051545 | 13 | 147 | 16.1 | 30.6 | 0.00 | 0.00 | 0.00 | 57 | 1008.6 |
| 20260505051045 | 13 | 148 | 17.7 | 32.2 | 0.00 | 0.00 | 0.00 | 57 | 1008.5 |
| 20260505050545 | 14 | 142 | 17.7 | 37.0 | 0.00 | 0.00 | 0.00 | 56 | 1008.4 |
| 20260505041541 | 16 | 174 | 12.9 | 25.7 | 0.00 | 0.00 | 0.00 | 41 | 1007.4 |
| 20260505041041 | 16 | 127 | 9.7 | 20.9 | 0.00 | 0.00 | 0.00 | 41 | 1007.4 |
| 20260505040541 | 16 | 168 | 6.4 | 17.7 | 0.00 | 0.00 | 0.00 | 41 | 1007.3 |
| 20260505040041 | 16 | 155 | 4.8 | 19.3 | 0.00 | 0.00 | 0.00 | 41 | 1007.2 |
| 20260505035541 | 16 | 157 | 8.0 | 19.3 | 0.00 | 0.00 | 0.00 | 41 | 1007.2 |
| 20260505035040 | 16 | 186 | 6.4 | 16.1 | 0.00 | 0.00 | 0.00 | 42 | 1007.2 |
| 20260505034543 | 16 | 89 | 6.4 | 16.1 | 0.00 | 0.00 | 0.00 | 43 | 1007.1 |
| 20260505034040 | 16 | 169 | 4.8 | 12.9 | 0.00 | 0.00 | 0.00 | 44 | 1007.0 |
| 20260505033539 | 16 | 143 | 4.8 | 17.7 | 0.00 | 0.00 | 0.00 | 45 | 1007.0 |
| 20260505033047 | 16 | 203 | 8.0 | 17.7 | 0.00 | 0.00 | 0.00 | 44 | 1007.0 |
| 20260505032538 | 16 | 140 | 8.0 | 17.7 | 0.00 | 0.00 | 0.00 | 43 | 1006.9 |
| 20260505032041 | 16 | 155 | 8.0 | 20.9 | 0.00 | 0.00 | 0.00 | 43 | 1006.9 |
| 20260505031538 | 16 | 270 | 8.0 | 20.9 | 0.00 | 0.00 | 0.00 | 42 | 1006.8 |
| 20260505031038 | 16 | 256 | 6.4 | 20.9 | 0.00 | 0.00 | 0.00 | 41 | 1006.7 |
| 20260505030541 | 17 | 213 | 8.0 | 16.1 | 0.00 | 0.00 | 0.00 | 41 | 1006.7 |
| 20260505030037 | 17 | 159 | 6.4 | 17.7 | 0.00 | 0.00 | 0.00 | 40 | 1006.6 |
| 20260505025538 | 17 | 255 | 8.0 | 17.7 | 0.00 | 0.00 | 0.00 | 40 | 1006.6 |
| 20260505025036 | 17 | 245 | 4.8 | 17.7 | 0.00 | 0.00 | 0.00 | 41 | 1006.5 |
| 20260505024601 | 17 | 143 | 4.8 | 20.9 | 0.00 | 0.00 | 0.00 | 41 | 1006.5 |
| 20260505024040 | 17 | 200 | 9.7 | 20.9 | 0.00 | 0.00 | 0.00 | 41 | 1006.4 |
| 20260505023536 | 17 | 157 | 8.0 | 19.3 | 0.00 | 0.00 | 0.00 | 40 | 1006.3 |
| 20260505023040 | 17 | 158 | 8.0 | 19.3 | 0.00 | 0.00 | 0.00 | 39 | 1006.2 |
| 20260505022536 | 17 | 176 | 6.4 | 17.7 | 0.00 | 0.00 | 0.00 | 37 | 1006.2 |
| 20260505022036 | 17 | 190 | 6.4 | 16.1 | 0.00 | 0.00 | 0.00 | 37 | 1006.2 |
| 20260505021546 | 17 | 111 | 8.0 | 20.9 | 0.00 | 0.00 | 0.00 | 37 | 1006.2 |
| 20260505021035 | 18 | 139 | 11.3 | 19.3 | 0.00 | 0.00 | 0.00 | 37 | 1006.2 |
| 20260505020535 | 18 | 170 | 8.0 | 25.7 | 0.00 | 0.00 | 0.00 | 37 | 1006.1 |
| 20260505020041 | 18 | 115 | 14.5 | 29.0 | 0.00 | 0.00 | 0.00 | 37 | 1006.0 |
| 20260505015534 | 18 | 160 | 12.9 | 29.0 | 0.00 | 0.00 | 0.00 | 36 | 1006.0 |
| 20260505015034 | 18 | 167 | 14.5 | 25.7 | 0.00 | 0.00 | 0.00 | 36 | 1006.0 |
| 20260505014534 | 18 | 172 | 11.3 | 20.9 | 0.00 | 0.00 | 0.00 | 35 | 1006.1 |
| 20260505014033 | 19 | 176 | 9.7 | 20.9 | 0.00 | 0.00 | 0.00 | 33 | 1006.0 |
| 20260505013535 | 19 | 186 | 0.0 | 6.4 | 0.00 | 0.00 | 0.00 | 31 | 1006.0 |
| 20260505013034 | 19 | 221 | 0.0 | 6.4 | 0.00 | 0.00 | 0.00 | 31 | 1006.0 |
| 20260505012532 | 19 | 200 | 0.0 | 6.4 | 0.00 | 0.00 | 0.00 | 31 | 1006.0 |
| 20260505012032 | 19 | 209 | 1.6 | 8.0 | 0.00 | 0.00 | 0.00 | 31 | 1006.0 |
| 20260505011544 | 20 | 151 | 1.6 | 8.0 | 0.00 | 0.00 | 0.00 | 31 | 1005.9 |
| 20260505011032 | 20 | 158 | 0.0 | 6.4 | 0.00 | 0.00 | 0.00 | 31 | 1006.0 |
| 20260505010532 | 20 | 164 | 3.2 | 9.7 | 0.00 | 0.00 | 0.00 | 31 | 1006.1 |
| 20260505010030 | 20 | 154 | 3.2 | 9.7 | 0.00 | 0.00 | 0.00 | 31 | 1006.1 |
| 20260505005530 | 20 | 242 | 0.0 | 1.6 | 0.00 | 0.00 | 0.00 | 33 | 1006.1 |
| 20260505005029 | 19 | 238 | 0.0 | 1.6 | 0.00 | 0.00 | 0.00 | 33 | 1006.2 |
| 20260505004538 | 19 | 1 | 0.0 | 1.6 | 0.00 | 0.00 | 0.00 | 34 | 1006.2 |
| 20260505004029 | 19 | 8 | 0.0 | 9.7 | 0.00 | 0.00 | 0.00 | 33 | 1006.2 |
| 20260505003528 | 19 | 40 | 3.2 | 9.7 | 0.00 | 0.00 | 0.00 | 33 | 1006.2 |
| 20260505003028 | 19 | 30 | 4.8 | 9.7 | 0.00 | 0.00 | 0.00 | 33 | 1006.3 |
| 20260505002528 | 19 | 41 | 1.6 | 6.4 | 0.00 | 0.00 | 0.00 | 33 | 1006.3 |
| 20260505002128 | 19 | 90 | 1.6 | 6.4 | 0.00 | 0.00 | 0.00 | 33 | 1006.3 |
| 20260505001527 | 19 | 86 | 1.6 | 9.7 | 0.00 | 0.00 | 0.00 | 33 | 1006.4 |
| 20260505001026 | 19 | 92 | 3.2 | 11.3 | 0.00 | 0.00 | 0.00 | 33 | 1006.4 |
| 20260505000526 | 19 | 82 | 6.4 | 14.5 | 0.00 | 0.00 | 0.00 | 32 | 1006.4 |
| 20260505000025 | 19 | 78 | 4.8 | 14.5 | 0.00 | 0.00 | 0.00 | 31 | 1006.4 |
| 20260504235525 | 19 | 72 | 8.0 | 19.3 | 0.00 | 0.00 | 0.00 | 32 | 1006.4 |
| 20260504235025 | 19 | 356 | 6.4 | 19.3 | 0.00 | 0.00 | 0.00 | 32 | 1006.5 |
| 20260504234523 | 19 | 60 | 3.2 | 12.9 | 0.00 | 0.00 | 0.00 | 33 | 1006.5 |
| 20260504234023 | 19 | 125 | 4.8 | 12.9 | 0.00 | 0.00 | 0.00 | 33 | 1006.7 |
| 20260504233523 | 19 | 88 | 4.8 | 11.3 | 0.00 | 0.00 | 0.00 | 32 | 1006.7 |
| 20260504233023 | 20 | 134 | 3.2 | 11.3 | 0.00 | 0.00 | 0.00 | 32 | 1006.8 |
| 20260504232523 | 20 | 107 | 6.4 | 12.9 | 0.00 | 0.00 | 0.00 | 31 | 1006.9 |
| 20260504232022 | 20 | 91 | 4.8 | 20.9 | 0.00 | 0.00 | 0.00 | 31 | 1006.8 |
| 20260504231522 | 20 | 64 | 9.7 | 20.9 | 0.00 | 0.00 | 0.00 | 30 | 1006.8 |
| 20260504231022 | 20 | 62 | 8.0 | 20.9 | 0.00 | 0.00 | 0.00 | 30 | 1006.7 |
| 20260504230522 | 20 | 66 | 9.7 | 20.9 | 0.00 | 0.00 | 0.00 | 30 | 1006.6 |
| 20260504230021 | 20 | 88 | 9.7 | 20.9 | 0.00 | 0.00 | 0.00 | 31 | 1006.7 |
| 20260504225522 | 20 | 65 | 12.9 | 20.9 | 0.00 | 0.00 | 0.00 | 31 | 1006.8 |
| 20260504225020 | 20 | 64 | 12.9 | 24.1 | 0.00 | 0.00 | 0.00 | 31 | 1006.8 |
| 20260504224522 | 20 | 113 | 14.5 | 27.4 | 0.00 | 0.00 | 0.00 | 31 | 1006.8 |
| 20260504224020 | 20 | 23 | 12.9 | 27.4 | 0.00 | 0.00 | 0.00 | 30 | 1006.8 |
| 20260504223520 | 21 | 15 | 11.3 | 20.9 | 0.00 | 0.00 | 0.00 | 30 | 1006.7 |
| 20260504223020 | 21 | 51 | 9.7 | 19.3 | 0.00 | 0.00 | 0.00 | 29 | 1006.7 |
| 20260504222519 | 21 | 82 | 6.4 | 14.5 | 0.00 | 0.00 | 0.00 | 28 | 1006.8 |
| 20260504222019 | 21 | 354 | 4.8 | 14.5 | 0.00 | 0.00 | 0.00 | 27 | 1006.6 |
| 20260504221519 | 21 | 335 | 4.8 | 17.7 | 0.00 | 0.00 | 0.00 | 28 | 1006.7 |
| 20260504221019 | 21 | 236 | 4.8 | 17.7 | 0.00 | 0.00 | 0.00 | 29 | 1006.6 |
| 20260504220522 | 20 | 298 | 1.6 | 14.5 | 0.00 | 0.00 | 0.00 | 30 | 1006.6 |
| 20260504220022 | 20 | 231 | 6.4 | 14.5 | 0.00 | 0.00 | 0.00 | 29 | 1006.7 |
| 20260504215517 | 20 | 214 | 4.8 | 19.3 | 0.00 | 0.00 | 0.00 | 30 | 1006.7 |
| 20260504215016 | 19 | 269 | 9.7 | 22.5 | 0.00 | 0.00 | 0.00 | 30 | 1006.8 |
| 20260504214517 | 19 | 248 | 9.7 | 22.5 | 0.00 | 0.00 | 0.00 | 31 | 1006.8 |
| 20260504214017 | 19 | 224 | 12.9 | 20.9 | 0.00 | 0.00 | 0.00 | 32 | 1006.9 |
| 20260504213517 | 19 | 263 | 8.0 | 22.5 | 0.00 | 0.00 | 0.00 | 32 | 1006.9 |
| 20260504213018 | 19 | 266 | 9.7 | 24.1 | 0.00 | 0.00 | 0.00 | 32 | 1006.9 |
| 20260504212516 | 19 | 190 | 11.3 | 24.1 | 0.00 | 0.00 | 0.00 | 31 | 1006.9 |
| 20260504212015 | 20 | 248 | 11.3 | 20.9 | 0.00 | 0.00 | 0.00 | 30 | 1006.9 |
| 20260504211516 | 20 | 243 | 8.0 | 22.5 | 0.00 | 0.00 | 0.00 | 27 | 1006.9 |
| 20260504211015 | 20 | 269 | 8.0 | 22.5 | 0.00 | 0.00 | 0.00 | 27 | 1006.8 |
| 20260504210519 | 20 | 240 | 11.3 | 19.3 | 0.00 | 0.00 | 0.00 | 26 | 1006.9 |
| 20260504210014 | 20 | 282 | 8.0 | 20.9 | 0.00 | 0.00 | 0.00 | 27 | 1006.9 |
| 20260504205517 | 20 | 243 | 9.7 | 24.1 | 0.00 | 0.00 | 0.00 | 27 | 1007.0 |
| 20260504205013 | 20 | 293 | 16.1 | 25.7 | 0.00 | 0.00 | 0.00 | 27 | 1006.9 |
| 20260504204517 | 20 | 273 | 12.9 | 25.7 | 0.00 | 0.00 | 0.00 | 27 | 1007.0 |
| 20260504204013 | 20 | 259 | 9.7 | 17.7 | 0.00 | 0.00 | 0.00 | 29 | 1007.0 |
| 20260504203513 | 20 | 283 | 8.0 | 22.5 | 0.00 | 0.00 | 0.00 | 28 | 1007.0 |
| 20260504203016 | 20 | 271 | 14.5 | 22.5 | 0.00 | 0.00 | 0.00 | 28 | 1007.0 |
| 20260504202514 | 21 | 191 | 9.7 | 19.3 | 0.00 | 0.00 | 0.00 | 29 | 1007.0 |
| 20260504202013 | 21 | 169 | 3.2 | 11.3 | 0.00 | 0.00 | 0.00 | 30 | 1007.0 |
| 20260504201511 | 21 | 243 | 0.0 | 11.3 | 0.00 | 0.00 | 0.00 | 28 | 1007.0 |
| 20260504201012 | 21 | 234 | 4.8 | 11.3 | 0.00 | 0.00 | 0.00 | 29 | 1007.0 |
| 20260504200511 | 21 | 167 | 4.8 | 9.7 | 0.00 | 0.00 | 0.00 | 28 | 1007.1 |
| 20260504200010 | 21 | 124 | 3.2 | 8.0 | 0.00 | 0.00 | 0.00 | 28 | 1007.1 |
| 20260504195509 | 21 | 193 | 3.2 | 8.0 | 0.00 | 0.00 | 0.00 | 28 | 1007.1 |
| 20260504195009 | 21 | 157 | 3.2 | 9.7 | 0.00 | 0.00 | 0.00 | 28 | 1007.2 |
| 20260504194509 | 21 | 252 | 0.0 | 6.4 | 0.00 | 0.00 | 0.00 | 28 | 1007.1 |
| 20260504194008 | 21 | 149 | 0.0 | 9.7 | 0.00 | 0.00 | 0.00 | 29 | 1007.2 |
| 20260504193508 | 21 | 137 | 4.8 | 9.7 | 0.00 | 0.00 | 0.00 | 27 | 1007.3 |
| 20260504193007 | 21 | 153 | 0.0 | 8.0 | 0.00 | 0.00 | 0.00 | 28 | 1007.3 |
| 20260504192507 | 21 | 111 | 4.8 | 9.7 | 0.00 | 0.00 | 0.00 | 28 | 1007.3 |
| 20260504192007 | 21 | 126 | 3.2 | 11.3 | 0.00 | 0.00 | 0.00 | 28 | 1007.3 |
| 20260504191510 | 21 | 70 | 3.2 | 16.1 | 0.00 | 0.00 | 0.00 | 27 | 1007.3 |
| 20260504191006 | 21 | 142 | 8.0 | 16.1 | 0.00 | 0.00 | 0.00 | 27 | 1007.5 |
| 20260504190506 | 22 | 148 | 4.8 | 16.1 | 0.00 | 0.00 | 0.00 | 27 | 1007.5 |
| 20260504190006 | 22 | 125 | 4.8 | 12.9 | 0.00 | 0.00 | 0.00 | 27 | 1007.6 |
| 20260504185504 | 22 | 136 | 8.0 | 14.5 | 0.00 | 0.00 | 0.00 | 26 | 1007.6 |
| 20260504185003 | 22 | 93 | 8.0 | 14.5 | 0.00 | 0.00 | 0.00 | 25 | 1007.7 |
| 20260504184503 | 22 | 114 | 6.4 | 19.3 | 0.00 | 0.00 | 0.00 | 27 | 1007.8 |
| 20260504184103 | 21 | 102 | 3.2 | 19.3 | 0.00 | 0.00 | 0.00 | 29 | 1007.9 |
| 20260504183502 | 21 | 148 | 8.0 | 12.9 | 0.00 | 0.00 | 0.00 | 27 | 1007.8 |
| 20260504183105 | 21 | 171 | 6.4 | 19.3 | 0.00 | 0.00 | 0.00 | 29 | 1007.9 |
| 20260504182559 | 21 | 170 | 8.0 | 19.3 | 0.00 | 0.00 | 0.00 | 29 | 1008.0 |
| 20260504182058 | 21 | 116 | 11.3 | 17.7 | 0.00 | 0.00 | 0.00 | 29 | 1008.1 |
| 20260504181604 | 21 | 128 | 6.4 | 19.3 | 0.00 | 0.00 | 0.00 | 29 | 1008.2 |
| 20260504181057 | 21 | 129 | 9.7 | 19.3 | 0.00 | 0.00 | 0.00 | 29 | 1008.2 |
| 20260504180557 | 21 | 146 | 8.0 | 22.5 | 0.00 | 0.00 | 0.00 | 30 | 1008.3 |
| 20260504180057 | 21 | 173 | 9.7 | 22.5 | 0.00 | 0.00 | 0.00 | 30 | 1008.3 |
| 20260504175555 | 21 | 139 | 12.9 | 24.1 | 0.00 | 0.00 | 0.00 | 30 | 1008.3 |
| 20260504175054 | 21 | 140 | 8.0 | 24.1 | 0.00 | 0.00 | 0.00 | 30 | 1008.4 |
| 20260504174554 | 21 | 126 | 12.9 | 24.1 | 0.00 | 0.00 | 0.00 | 30 | 1008.4 |
| 20260504174053 | 20 | 153 | 9.7 | 24.1 | 0.00 | 0.00 | 0.00 | 31 | 1008.5 |
| 20260504173552 | 20 | 117 | 9.7 | 25.7 | 0.00 | 0.00 | 0.00 | 31 | 1008.6 |
| 20260504173057 | 20 | 160 | 12.9 | 27.4 | 0.00 | 0.00 | 0.00 | 31 | 1008.6 |
| 20260504172550 | 20 | 183 | 11.3 | 24.1 | 0.00 | 0.00 | 0.00 | 31 | 1008.6 |
| 20260504172051 | 20 | 140 | 12.9 | 24.1 | 0.00 | 0.00 | 0.00 | 32 | 1008.8 |
| 20260504171550 | 20 | 131 | 9.7 | 27.4 | 0.00 | 0.00 | 0.00 | 31 | 1008.8 |
| 20260504171050 | 20 | 162 | 12.9 | 27.4 | 0.00 | 0.00 | 0.00 | 31 | 1008.8 |
| 20260504170547 | 20 | 111 | 11.3 | 27.4 | 0.00 | 0.00 | 0.00 | 33 | 1008.9 |
| 20260504151031 | 17 | 99 | 12.9 | 22.5 | 0.00 | 0.00 | 0.00 | 41 | 1009.6 |
| 20260504150533 | 17 | 148 | 11.3 | 19.3 | 0.00 | 0.00 | 0.00 | 42 | 1009.7 |
| 20260504141023 | 16 | 181 | 4.8 | 14.5 | 0.00 | 0.00 | 0.00 | 44 | 1009.9 |
| 20260504140522 | 15 | 229 | 4.8 | 14.5 | 0.00 | 0.00 | 0.00 | 46 | 1010.0 |
| 20260504130520 | 13 | 163 | 3.2 | 11.3 | 0.00 | 0.00 | 0.00 | 50 | 1010.0 |